When you browse on this site, cookies collect data to enhance your experience and personalize the content and advertising you see.
Visit our Privacy Policy to learn more. By continuing to use the site, you agree to this use of cookies and data.
  • En España
  • Lista de países
  • Para 7 días
  • Temperatura del agua
  • El tiempo en el mapa
  • Informadores
  • user-avatar
    Iniciar sesión

    Tiempo cada hora Constantine

    Hoy, 23 Agosto, Viernes

    Tiempo Temperatura Precipitaciones Viento Presión Humedad
    00:00 +25°C° 0 mm 1 mps 712 mmHg 82%
    01:00 +25°C° 0.2 mm 1 mps 711 mmHg 84%
    02:00 +24°C° 0.2 mm 1 mps 711 mmHg 86%
    03:00 +24°C° 0.2 mm 1 mps 711 mmHg 88%
    04:00 +24°C° 0.1 mm 1 mps 711 mmHg 88%
    05:00 +24°C° 0.1 mm 1 mps 711 mmHg 87%
    06:00 +24°C° 0 mm 2 mps 712 mmHg 86%
    07:00 +25°C° 0.1 mm 2 mps 712 mmHg 82%
    08:00 +25°C° 0.1 mm 2 mps 712 mmHg 79%
    09:00 +26°C° 0.1 mm 2 mps 713 mmHg 75%
    10:00 +27°C° 0.2 mm 2 mps 713 mmHg 69%
    11:00 +28°C° 0.2 mm 2 mps 713 mmHg 62%
    12:00 +30°C° 0.2 mm 2 mps 713 mmHg 56%
    13:00 +30°C° 0.4 mm 2 mps 712 mmHg 53%
    14:00 +31°C° 0.4 mm 3 mps 712 mmHg 49%
    15:00 +33°C° 0.4 mm 3 mps 712 mmHg 46%
    16:00 +30°C° 1 mm 3 mps 711 mmHg 54%
    17:00 +28°C° 1 mm 3 mps 711 mmHg 62%
    18:00 +27°C° 1 mm 3 mps 711 mmHg 70%
    19:00 +26°C° 0.3 mm 3 mps 711 mmHg 72%
    20:00 +25°C° 0.3 mm 2 mps 711 mmHg 75%
    21:00 +25°C° 0.3 mm 2 mps 712 mmHg 78%
    22:00 +24°C° 0 mm 2 mps 711 mmHg 79%
    23:00 +24°C° 0 mm 1 mps 711 mmHg 80%

    Mañana, 24 Agosto, Sábado

    Tiempo Temperatura Precipitaciones Viento Presión Humedad
    00:00 +24°C° 0 mm 1 mps 711 mmHg 81%
    01:00 +24°C° 0 mm 1 mps 711 mmHg 82%
    02:00 +24°C° 0 mm 1 mps 711 mmHg 82%
    03:00 +23°C° 0 mm 1 mps 710 mmHg 83%
    04:00 +24°C° 0 mm 1 mps 710 mmHg 82%
    05:00 +24°C° 0 mm 1 mps 711 mmHg 80%
    06:00 +24°C° 0 mm 1 mps 711 mmHg 79%
    07:00 +26°C° 0.3 mm 1 mps 711 mmHg 72%
    08:00 +27°C° 0.3 mm 1 mps 712 mmHg 65%
    09:00 +28°C° 0.3 mm 2 mps 712 mmHg 59%
    10:00 +30°C° 0.4 mm 2 mps 712 mmHg 53%
    11:00 +31°C° 0.4 mm 2 mps 712 mmHg 47%
    12:00 +32°C° 0.4 mm 2 mps 712 mmHg 42%
    13:00 +30°C° 4 mm 3 mps 711 mmHg 53%
    14:00 +28°C° 4 mm 3 mps 711 mmHg 64%
    15:00 +26°C° 4 mm 4 mps 710 mmHg 75%
    16:00 +26°C° 1.1 mm 3 mps 710 mmHg 72%
    17:00 +26°C° 1.1 mm 3 mps 710 mmHg 69%
    18:00 +25°C° 1.1 mm 2 mps 711 mmHg 66%
    19:00 +25°C° 0 mm 2 mps 711 mmHg 68%
    20:00 +25°C° 0 mm 1 mps 711 mmHg 69%
    21:00 +24°C° 0 mm 1 mps 711 mmHg 71%
    22:00 +24°C° 0 mm 1 mps 711 mmHg 73%
    23:00 +24°C° 0 mm 1 mps 710 mmHg 74%

    Pasado mañana, 25 Agosto, Domingo

    Tiempo Temperatura Precipitaciones Viento Presión Humedad
    00:00 +24°C° 0 mm 1 mps 710 mmHg 76%
    01:00 +23°C° 0 mm 1 mps 710 mmHg 77%
    02:00 +23°C° 0 mm 1 mps 710 mmHg 78%
    03:00 +23°C° 0 mm 1 mps 710 mmHg 80%
    04:00 +21°C° 0 mm 0 mps 710 mmHg 78%
    05:00 +21°C° 0 mm 0 mps 710 mmHg 77%
    06:00 +21°C° 0 mm 0 mps 710 mmHg 76%
    07:00 +23°C° 0 mm 0 mps 711 mmHg 69%
    08:00 +24°C° 0 mm 0 mps 711 mmHg 62%
    09:00 +28°C° 0 mm 1 mps 711 mmHg 56%
    10:00 +29°C° 0 mm 1 mps 711 mmHg 51%
    11:00 +31°C° 0 mm 1 mps 711 mmHg 46%
    12:00 +32°C° 0 mm 2 mps 711 mmHg 41%
    13:00 +32°C° 0 mm 2 mps 711 mmHg 42%
    14:00 +33°C° 0 mm 3 mps 711 mmHg 43%
    15:00 +33°C° 0 mm 3 mps 710 mmHg 44%
    16:00 +31°C° 0.2 mm 3 mps 710 mmHg 50%
    17:00 +29°C° 0.2 mm 3 mps 710 mmHg 56%
    18:00 +28°C° 0.2 mm 3 mps 710 mmHg 62%
    19:00 +27°C° 0 mm 2 mps 710 mmHg 66%
    20:00 +27°C° 0 mm 2 mps 710 mmHg 70%
    21:00 +26°C° 0 mm 1 mps 711 mmHg 74%
    22:00 +26°C° 0 mm 1 mps 710 mmHg 75%
    23:00 +25°C° 0 mm 1 mps 710 mmHg 77%

    26 Agosto, Lunes

    Tiempo Temperatura Precipitaciones Viento Presión Humedad
    00:00 +25°C° 0 mm 1 mps 710 mmHg 78%
    01:00 +25°C° 0 mm 1 mps 710 mmHg 78%
    02:00 +25°C° 0 mm 1 mps 710 mmHg 77%
    03:00 +23°C° 0 mm 0 mps 709 mmHg 77%
    04:00 +23°C° 0 mm 0 mps 710 mmHg 75%
    05:00 +23°C° 0 mm 0 mps 710 mmHg 74%
    06:00 +24°C° 0 mm 0 mps 710 mmHg 72%
    07:00 +28°C° 0 mm 1 mps 711 mmHg 62%
    08:00 +29°C° 0 mm 1 mps 711 mmHg 53%
    09:00 +31°C° 0 mm 1 mps 711 mmHg 43%
    10:00 +34°C° 0 mm 2 mps 711 mmHg 37%
    11:00 +35°C° 0 mm 2 mps 711 mmHg 31%
    12:00 +36°C° 0 mm 2 mps 711 mmHg 25%
    13:00 +37°C° 0 mm 3 mps 711 mmHg 24%
    14:00 +37°C° 0 mm 3 mps 710 mmHg 23%
    15:00 +37°C° 0 mm 4 mps 710 mmHg 22%
    16:00 +36°C° 0 mm 3 mps 710 mmHg 28%
    17:00 +34°C° 0 mm 3 mps 710 mmHg 35%
    18:00 +32°C° 0 mm 2 mps 709 mmHg 42%
    19:00 +31°C° 0 mm 2 mps 709 mmHg 47%
    20:00 +30°C° 0 mm 1 mps 709 mmHg 51%
    21:00 +29°C° 0 mm 1 mps 710 mmHg 56%
    22:00 +29°C° 0 mm 1 mps 709 mmHg 56%
    23:00 +29°C° 0 mm 1 mps 709 mmHg 55%

    27 Agosto, Martes

    Tiempo Temperatura Precipitaciones Viento Presión Humedad
    00:00 +26°C° 0 mm 0 mps 709 mmHg 55%
    01:00 +28°C° 0 mm 1 mps 709 mmHg 53%
    02:00 +28°C° 0 mm 1 mps 709 mmHg 51%
    03:00 +28°C° 0 mm 1 mps 710 mmHg 50%
    04:00 +28°C° 0 mm 1 mps 710 mmHg 53%
    05:00 +27°C° 0 mm 1 mps 710 mmHg 57%
    06:00 +27°C° 0 mm 1 mps 710 mmHg 60%
    07:00 +28°C° 0 mm 1 mps 711 mmHg 53%
    08:00 +29°C° 0 mm 2 mps 711 mmHg 47%
    09:00 +31°C° 0 mm 3 mps 711 mmHg 40%
    10:00 +33°C° 0 mm 3 mps 711 mmHg 35%
    11:00 +35°C° 0 mm 4 mps 711 mmHg 30%
    12:00 +36°C° 0 mm 5 mps 712 mmHg 25%
    13:00 +36°C° 0 mm 5 mps 711 mmHg 27%
    14:00 +35°C° 0 mm 5 mps 711 mmHg 28%
    15:00 +34°C° 0 mm 5 mps 711 mmHg 30%
    16:00 +33°C° 0 mm 4 mps 711 mmHg 33%
    17:00 +31°C° 0 mm 3 mps 711 mmHg 35%
    18:00 +31°C° 0 mm 2 mps 711 mmHg 38%
    19:00 +30°C° 0 mm 2 mps 711 mmHg 41%
    20:00 +29°C° 0 mm 1 mps 711 mmHg 44%
    21:00 +27°C° 0 mm 1 mps 711 mmHg 47%
    22:00 +27°C° 0.2 mm 1 mps 711 mmHg 48%
    23:00 +27°C° 0.2 mm 1 mps 711 mmHg 49%

    28 Agosto, Miércoles

    Tiempo Temperatura Precipitaciones Viento Presión Humedad
    00:00 +26°C° 0.2 mm 1 mps 711 mmHg 50%
    01:00 +24°C° 0.1 mm 0 mps 711 mmHg 54%
    02:00 +23°C° 0.1 mm 0 mps 710 mmHg 57%
    03:00 +23°C° 0.1 mm 0 mps 710 mmHg 60%
    04:00 +23°C° 0 mm 0 mps 710 mmHg 62%
    05:00 +23°C° 0 mm 0 mps 711 mmHg 64%
    06:00 +25°C° 0 mm 1 mps 711 mmHg 66%
    07:00 +25°C° 0 mm 1 mps 711 mmHg 64%
    08:00 +26°C° 0 mm 1 mps 712 mmHg 61%
    09:00 +27°C° 0 mm 1 mps 712 mmHg 59%
    10:00 +28°C° 0 mm 2 mps 712 mmHg 53%
    11:00 +29°C° 0 mm 2 mps 712 mmHg 48%
    12:00 +30°C° 0 mm 2 mps 712 mmHg 43%
    13:00 +30°C° 0.1 mm 2 mps 711 mmHg 44%
    14:00 +30°C° 0.1 mm 3 mps 711 mmHg 46%
    15:00 +30°C° 0.1 mm 4 mps 711 mmHg 47%
    16:00 +29°C° 0.4 mm 4 mps 711 mmHg 54%
    17:00 +27°C° 0.4 mm 4 mps 711 mmHg 61%
    18:00 +26°C° 0.4 mm 4 mps 710 mmHg 68%
    19:00 +25°C° 0.1 mm 3 mps 711 mmHg 71%
    20:00 +24°C° 0.1 mm 2 mps 711 mmHg 74%
    21:00 +24°C° 0.1 mm 2 mps 711 mmHg 76%
    22:00 +23°C° 0 mm 1 mps 711 mmHg 77%
    23:00 +23°C° 0 mm 1 mps 711 mmHg 77%
    Mostrar más